CZ-6A DEB, 54565

Orbit data source: Space-Track

CZ-6A DEB, 54565 is space debris in SSO originally from a launch on Fri, 11 Nov 2022 UTC launched from the Taiyaun Space Center, China (TSC). Debris objects in space refer to the collection of defunct objects orbiting the Earth. Examples of debris include non-operational satellites, rocket bodies, and fragments generated from explosions, collisions, or faulty payload assembly.

Loading next visibility...
Identifier
54565, 2022-151LR
Orbit
SSO
Country
Flag of CNCN / PRC
Related business
Manufacturer
SAST
Mission
Spacecraft
Bus & Motor
Unknown
Mass
Unknown
Launch date (UTC)
2022-11-11 (3 years ago)
Launch vehicle
Unknown
Launch site
Taiyaun Space Center, China (TSC)
Object type
Payload
Rocket body
Debris
Shape & HBR
Unknown shape, 0.1 m
Radar Cross Section
Small (<0.1 m²)

Expand to show TLE details & history
Last TLE update: 2 days ago

TLE from 2 days ago
0 CZ-6A DEB
1 54565U 22151LR  25349.09668634  .00008158  00000-0  14690-2 0  9995
2 54565  98.6483  40.5934 0100924 150.5717 210.1219 14.63554462163086
Epoch: 2025-12-15T02:19Z
TLE epoch observation values (Epoch: 2025-12-15T02:19:13.699Z)
Latitude
-0°
Longitude
-78.21383°
Altitude
746.517 km
Speed
7.449 km/s
True Right ascension
02h 42m 22s
True Declination
0° 00' 00"
Sunlit
Object was in full shadow at epoch
Visualization orbit readout
Latitude
Unknown
Longitude
Unknown
Altitude
Unknown
Speed
Unknown
Apparent Right ascension
Unknown
Apparent Declination
Unknown
Sunlit
N/A
Visualization observer readout
Local Sidereal Time
17:45:04
Azimuth
Unknown
Elevation
Unknown
Doppler factor
Unknown
Orbital elements
Apogee altitude
750.039 km
Perigee altitude
607.596 km
Semi-major axis
7,056.954 km
Eccentricity
0.01009
Inclination
98.6483°
RAAN
40.5934°
Arg. of periapsis
150.5717°
True anomaly
209.5478°
Mean anomaly
210.1219°
Eccentric anomaly
209.83422°
Mean motion
3.66115 °/min
Orbital period
98.33 mins
BSTAR
0.001469
Loading maneuver chart data...
Computing Atmospheric mass density...
Loading historical data...
Loading historical data...
Loading historical data...
Loading historical data...
Loading historical data...
Loading historical data...
Loading historical data...

Documentation

Showing up to 5 results
|